Regional Weather Roundup
Issued by NWS Jackson, KY

Home | Current Version | Previous Version | Graphics & Text | Print | Product List | Glossary On
Versions: 1 2 3 4 5 6 7 8 9 10 11 12 13 14 15 16 17 18 19 20 21 22 23 24 25 26 27 28 29 30 31 32 33 34 35 36 37 38 39 40 41 42 43 44 45 46 47 48 49 50
000
ASUS43 KJKL 262310
RWRJKL

EAST KENTUCKY HOURLY WEATHER ROUNDUP
NATIONAL WEATHER SERVICE JACKSON KY
700 PM EDT THU MAY 26 2016

NOTE: "FAIR" INDICATES FEW OR NO CLOUDS BELOW 12,000 FEET WITH
NO SIGNIFICANT WEATHER AND/OR OBSTRUCTIONS TO VISIBILITY.

* THESE REPORTS ARE NOT UNDER NWS QUALITY CONTROL AND MAY NOT
  REPORT WEATHER SUCH AS PRECIPITATION AND FOG.

KYZ079-080-083-085-087-088-110-112-115-119-120-270000
...EASTERN KENTUCKY...

CITY           SKY/WX    TMP DP  RH WIND       PRES   REMARKS
JACKSON        MOSUNNY   75  62  64 CALM      30.09S
LONDON         CLOUDY    69  61  75 NE5       30.12F
SOMERSET*      DRIZZLE   64  64 100 CALM      30.12F
MONTICELLO*    LGT RAIN  66  64  93 NE8       30.14S
WILLIAMSBURG*  PTCLDY    63  57  82 NW7G16    30.13S
MIDDLESBORO*   MOSUNNY   78  65  64 CALM      30.12R
HARLAN APT*      N/A     73  63  68 CALM      30.13S
HAZARD APT*    PTCLDY    77  64  65 SW6       30.09F
BLACK MTN*       N/A     63  59  88 S5          N/A
PIKE CO APT*     N/A     76  65  70 S3        30.10S
BIG SANDY APT* PTCLDY    78  64  63 SW3       30.09S
MOREHEAD APT*  PTCLDY    70  66  88 CALM      30.07F
ASHLAND*       MOSUNNY   79  68  69 SW3       30.00F
$$

KYZ035-036-041-042-044-050-067-078-099-270000
...CENTRAL KENTUCKY...

CITY           SKY/WX    TMP DP  RH WIND       PRES   REMARKS
MT STERLING*   CLOUDY   N/A N/A N/A SW3       30.06F
FLEMING/MASON* CLOUDY   N/A N/A N/A SW7       30.04S
DANVILLE*      LGT RAIN  64  63  94 S8        30.07F
RICHMOND*      CLOUDY    64  63  94 S6        30.09S
LEXINGTON      LGT RAIN  67  65  93 S14       30.04F
FRANKFORT      PTSUNNY   68  64  87 S3        30.02S
LOUISVILLE     CLOUDY    71  63  75 SE7       29.99F
LEBANON*         N/A     66  64  94 SE5       30.03
GLASGOW*       RAIN      65  65 100 S3        30.08S
BOWLING GREEN  LGT RAIN  68  66  93 SE5       30.06F
$$

KYZ091>093-OHZ055-061-077-WVZ005-015-034-035-042-270000
...SOUTHERN OHIO/WEST VIRGINIA...

CITY           SKY/WX    TMP DP  RH WIND       PRES   REMARKS
COVINGTON      CLOUDY    70  66  87 S10       30.00F
COLUMBUS       CLOUDY    78  66  66 S12       29.98S
DAYTON         CLOUDY    76  66  71 S12       29.98F
WILMINGTON     CLOUDY    74  67  78 SW12      29.99R
HUNTINGTON       N/A     78  66  66 S8        30.03F
CHARLESTON       N/A     78  62  57 S9        30.06F
PINEVILLE*       N/A     74  61  63 MISG      30.16F
BECKLEY          N/A     72  61  68 VRB6      30.15F
BLUEFIELD        N/A     71  59  65 W7        30.17F
LOGAN CO APT*    N/A     73  63  68 CALM      30.09F
$$

VAZ002-007-008-TNZ017-027-036-066-071-270000
...SOUTHWEST VIRGINIA/EAST TENNESSEE...

CITY           SKY/WX    TMP DP  RH WIND       PRES   REMARKS
WISE*            N/A     73  54  49 SW6       30.18F
JONESVILLE*      N/A     75  64  69 CALM      30.14F
ABINGDON*        N/A     76  63  65 NW6       30.15F
BRISTOL        MOSUNNY   76  62  62 VRB3      30.13F
SEVIERVILLE*   CLEAR     79  63  57 NE7       30.09R
KNOXVILLE      MOSUNNY   82  62  50 N7        30.07S
OAK RIDGE      SUNNY     83  60  45 VRB3      30.10R
CROSSVILLE     SUNNY     78  62  57 S3        30.12S
NASHVILLE      CLOUDY    73  63  70 NE15      30.05R
$$

...KEY TO REMARKS...
VSB - VISIBILITY IN MILES
WCI - WIND CHILL INDEX
HX  - HEAT INDEX

$$



USA.gov is the U.S. government's official web portal to all federal, state and local government web resources and services.